This is the latest recevied weather packets stored in our database for station/object KK4WXG. If no packets are shown the sender has not sent any weather packets the latest 10 day(s).
| Time | Temp. | Humidity | Pressure | Rain* | Wind** | Luminosity | Snow |
|---|---|---|---|---|---|---|---|
| 1777610924 | 5.56° C | 81% | 1014.1 hPa | 0 mm | - | 0 W/m² | - |
| 1777610619 | 5.56° C | 81% | 1014.3 hPa | 0 mm | - | 0 W/m² | - |
| 1777610318 | 5.56° C | 79% | 1014.2 hPa | 0 mm | - | 0 W/m² | - |
| 1777610016 | 6.67° C | 74% | 1014.1 hPa | 0 mm | - | 0 W/m² | - |
| 1777609712 | 7.22° C | 71% | 1014.2 hPa | 0 mm | - | 0 W/m² | - |
| 1777609409 | 7.22° C | 71% | 1014.2 hPa | 0 mm | - | 0 W/m² | - |
| 1777609107 | 7.22° C | 70% | 1014.1 hPa | 0 mm | - | 0 W/m² | - |
| 1777608804 | 7.22° C | 70% | 1014.2 hPa | 0 mm | - | 0 W/m² | - |
| 1777608501 | 7.22° C | 71% | 1014 hPa | 0 mm | - | 0 W/m² | - |
| 1777608198 | 7.22° C | 70% | 1014.1 hPa | 0 mm | - | 0 W/m² | - |
| 1777607895 | 7.78° C | 68% | 1013.8 hPa | 0 mm | - | 0 W/m² | - |
| 1777607590 | 8.33° C | 67% | 1013.9 hPa | 0 mm | - | 0 W/m² | - |
| 1777607288 | 8.33° C | 67% | 1014.1 hPa | 0 mm | - | 0 W/m² | - |
| 1777606983 | 8.33° C | 67% | 1013.9 hPa | 0 mm | - | 0 W/m² | - |
| 1777606679 | 8.33° C | 66% | 1013.8 hPa | 0 mm | - | 0 W/m² | - |
| 1777606375 | 8.33° C | 66% | 1013.7 hPa | 0 mm | - | 0 W/m² | - |
| 1777606075 | 8.33° C | 65% | 1013.8 hPa | 0 mm | - | 0 W/m² | - |
| 1777605771 | 8.89° C | 64% | 1014 hPa | 0 mm | - | 0 W/m² | - |
| 1777605470 | 8.89° C | 64% | 1013.6 hPa | 0 mm | - | 0 W/m² | - |
| 1777605168 | 8.89° C | 63% | 1013.7 hPa | 0 mm | - | 0 W/m² | - |
| 1777604863 | 8.89° C | 62% | 1013.8 hPa | 0 mm | - | 0 W/m² | - |
| 1777604559 | 9.44° C | 61% | 1013.7 hPa | 0 mm | - | 0 W/m² | - |
| 1777604255 | 9.44° C | 61% | 1013.9 hPa | 0 mm | - | 0 W/m² | - |
| 1777603951 | 9.44° C | 61% | 1013.8 hPa | 0 mm | - | 0 W/m² | - |
| 1777603648 | 9.44° C | 61% | 1013.6 hPa | 0 mm | - | 0 W/m² | - |
* Rain latest hour (hover to see other rain measurements)
** Current wind speed in m/s (hover to see current wind gust speed)